N2QDK-2 Weather Reports


Display with metric or nautical units.
time (UTC)temp
F
wind
direction
speed
MPH
gust
MPH
rain 1hr
in
rain 24hr
in
rain mn
in
humidity
%
barometer
mb
20181017030004 47 288 2.0 6.0 0.00 0.00 0.00 66 1013.4
20181017023003 46 150 0.0 3.0 0.00 0.00 0.00 70 1013.4
20181017020003 46 119 2.0 3.0 0.00 0.00 0.00 70 1013.5
20181017013002 47 90 2.0 3.0 0.00 0.00 0.00 71 1013.5
20181017010001 48 90 0.0 5.0 0.00 0.00 0.00 67 1013.7
20181017003000 49 155 2.0 3.0 0.00 0.00 0.00 65 1013.7
20181016235959 49 171 0.0 5.0 0.00 0.00 0.00 65 1013.9
20181016232958 50 241 0.0 6.0 0.00 0.00 0.00 66 1014.0
20181016225957 50 184 3.0 12.0 0.00 0.00 0.00 63 1014.3
20181016222958 51 220 2.0 15.0 0.00 0.00 0.00 64 1014.4
20181016220025 51 191 2.0 9.0 0.00 0.00 0.00 65 1014.5
20181016212955 51 180 5.0 17.0 0.00 0.00 0.00 65 1014.7
20181016205954 51 225 6.0 14.0 0.00 0.00 0.00 66 1014.9
20181016202953 51 272 2.0 15.0 0.00 0.00 0.00 65 1015.1
20181016200022 52 214 3.0 6.0 0.00 0.00 0.00 62 1015.5
20181016192921 52 151 0.0 9.0 0.00 0.00 0.00 59 1015.8
20181016190020 52 169 2.0 14.0 0.00 0.00 0.00 59 1016.3
20181016183020 52 240 2.0 12.0 0.00 0.00 0.00 59 1016.6
20181016175949 51 165 3.0 12.0 0.00 0.00 0.00 55 1017.0
20181016173018 50 263 3.0 18.0 0.00 0.00 0.00 56 1017.7
20181016170017 49 132 2.0 18.0 0.00 0.00 0.00 57 1018.3
20181016163016 47 173 5.0 11.0 0.00 0.00 0.00 62 1019.0
20181016160015 46 171 3.0 8.0 0.00 0.00 0.00 62 1019.6
20181016153016 46 171 3.0 11.0 0.00 0.00 0.00 62 1020.0
20181016150013 45 205 5.0 11.0 0.00 0.00 0.00 62 1020.3
20181016143012 44 248 0.0 9.0 0.00 0.00 0.00 64 1020.7
20181016140011 44 216 5.0 9.0 0.00 0.00 0.00 63 1020.7
20181016132941 43 216 3.0 6.0 0.00 0.00 0.00 66 1020.7
20181016130010 42 194 3.0 6.0 0.00 0.00 0.00 67 1020.7
20181016123010 42 99 5.0 14.0 0.00 0.00 0.00 65 1020.4
20181016120008 42 172 5.0 9.0 0.00 0.00 0.00 66 1020.3
20181016112937 42 117 0.0 11.0 0.00 0.00 0.00 66 1020.0
20181016110006 42 76 2.0 8.0 0.00 0.00 0.00 66 1020.0
20181016103005 42 321 2.0 11.0 0.00 0.00 0.00 66 1020.0
20181016100005 41 143 2.0 9.0 0.00 0.00 0.00 66 1019.8
20181016093003 41 163 0.0 11.0 0.00 0.00 0.00 66 1019.7
20181016090002 41 130 5.0 9.0 0.00 0.00 0.00 66 1019.4
20181016083002 41 200 2.0 15.0 0.00 0.00 0.00 66 1019.1
20181016080001 41 148 2.0 14.0 0.00 0.00 0.00 66 1018.8
20181016073000 41 253 6.0 11.0 0.00 0.00 0.00 66 1018.7
20181016065959 42 188 2.0 12.0 0.00 0.00 0.00 66 1018.9
20181016062958 42 236 3.0 11.0 0.00 0.00 0.00 65 1018.8
20181016055957 43 263 2.0 14.0 0.00 0.00 0.00 63 1019.0
20181016052957 44 205 0.0 11.0 0.00 0.00 0.00 62 1018.8
20181016045955 44 217 3.0 12.0 0.00 0.00 0.00 59 1018.6
20181016042924 44 177 6.0 20.0 0.00 0.00 0.00 59 1018.4
20181016040023 45 205 6.0 14.0 0.00 0.00 0.00 59 1018.2
20181016032923 45 319 3.0 18.0 0.00 0.00 0.00 58 1017.9